SCP
0 0 0 0 0 0 0 0 0 0 0 0 0 0 0 0 0 0 0 0 0 0 0 0 0 0 0 0 0 0 0 0 0 0 0 0 0 0 0 0 0 0 -0
0 0 0 0 0 0 0 0 0 0 0 0 0 0 0 0 0 0 0 0 0 0 0 0 0 0 0 0 0 0 0 0 0 0 0 0 0 0 0 0 -0 -0 0
0 0 0 0 0 0 0 0 0 0 0 0 0 0 0 0 0 0 0 0 0 0 1 0 0 0 0 0 0 0 0 0 0 0 0 0 0 0 0 0 0 -0 0
0 0 0 0 0 0 0 0 0 0 0 0 0 0 0 0 0 0 0 0 0 0 1 0 -0 0 0 0 0 0 0 0 0 0 0 0 0 0 0 0 0 0 0
0 0 0 0 0 0 0 0 0 0 0 0 0 0 0 0 0 0 0 0 0 0 0 0 0 0 0 0 0 0 0 0 0 0 0 0 0 0 0 0 0 -0 -0
0 0 0 0 0 0 0 0 0 0 0 0 0 0 0 0 0 0 0 0 0 0 0 0 0 0 0 0 0 0 0 0 0 0 0 0 0 0 0 0 0 -0 -0
1 0 0 0 0 0 0 0 0 0 0 0 0 0 0 0 0 0 0 0 0 0 0 0 0 0 0 0 0 0 0 0 0 0 0 0 0 0 0 0 0 0 -0
2 1 0 0 0 0 0 0 0 0 0 0 0 0 0 0 0 0 0 0 0 0 0 0 0 0 0 0 0 0 0 0 0 0 0 0 0 0 0 0 0 0 0
2 2 1 1 0 0 0 0 0 0 0 0 0 0 0 0 0 0 0 0 0 0 0 0 0 0 0 0 0 0 0 0 0 0 0 0 0 0 0 0 0 0 0
1 2 2 1 1 0 0 0 0 0 0 0 0 0 0 0 0 0 0 0 0 0 0 0 0 0 0 0 0 0 0 0 0 0 0 0 0 0 0 0 0 0 -0
1 2 2 1 1 1 0 0 0 0 0 0 0 0 0 0 0 0 0 0 0 0 0 0 0 0 0 0 0 0 0 0 0 0 0 -0 0 0 0 0 0 0 -0
1 2 1 1 1 1 0 0 0 0 0 0 0 0 0 0 0 0 0 0 0 0 0 0 0 0 0 0 0 0 0 0 0 0 0 0 0 0 0 0 -0 -0 -0
1 1 1 1 1 1 1 0 0 0 0 0 0 0 0 0 0 0 0 0 0 0 0 0 0 0 0 0 0 0 0 0 0 0 0 0 0 0 0 0 -0 -0 -0
1 1 1 1 1 1 1 0 0 0 0 0 0 0 0 0 0 0 0 0 0 0 0 0 0 0 0 0 0 0 0 0 0 0 0 0 0 0 0 0 -0 -0 -0
1 1 1 1 1 1 0 0 0 0 0 0 0 0 0 0 0 0 0 0 0 0 0 0 0 0 0 0 0 0 0 0 0 0 0 0 0 0 0 0 0 0 0
1 1 0 0 0 1 0 0 0 0 0 0 0 0 0 0 0 0 0 0 0 0 0 0 0 0 0 0 0 0 0 0 0 0 0 0 0 0 0 0 0 0 0
1 1 0 0 0 0 0 0 0 0 0 0 0 0 0 0 0 0 0 0 0 0 0 0 0 0 0 0 0 0 0 0 0 0 0 0 0 0 0 0 0 0 0
1 1 0 1 0 0 0 0 0 0 0 0 0 0 0 0 0 0 0 0 0 0 0 0 0 0 0 0 0 0 0 0 0 0 0 0 0 -0 0 0 0 0 0
1 1 1 1 0 0 0 0 0 0 0 0 0 0 0 0 0 0 0 0 0 0 0 0 0 0 0 0 0 0 0 0 0 0 0 0 -0 0 0 0 0 0 0
1 1 0 0 0 0 0 0 0 0 0 0 0 0 0 0 0 0 0 0 0 0 0 0 0 0 0 0 0 0 0 0 0 0 0 0 0 0 0 0 0 0 0
0 0 0 0 0 0 0 0 0 0 0 0 0 0 0 0 0 0 0 0 0 0 0 0 0 0 0 0 0 0 0 0 0 0 0 0 0 0 0 0 0 0 0
0 0 0 0 0 0 0 0 0 0 0 0 0 0 0 0 0 0 0 0 0 0 0 0 0 0 0 0 0 0 0 0 0 0 0 0 0 0 0 0 0 0 0
0 0 0 0 0 0 0 0 0 0 0 0 0 0 0 0 0 0 0 0 0 0 0 0 0 0 0 0 0 0 0 0 0 0 0 0 0 0 0 0 0 0 0
0 0 0 0 0 0 0 0 0 0 0 0 0 0 0 0 0 0 0 0 0 0 0 0 0 0 0 0 0 0 0 0 0 0 0 0 0 0 0 0 0 0 0
0 0 0 0 0 0 0 0 0 0 0 0 0 0 0 0 0 0 0 0 0 0 0 0 0 0 0 0 0 0 0 0 0 0 0 0 0 0 0 0 0 0 0
0 0 0 0 0 0 0 0 0 0 0 0 0 0 -0 -0 -0 -0 0 0 0 0 0 0 0 0 0 0 0 0 0 0 0 0 0 0 0 0 0 0 0 0 0
Wind_Speed_500mb
59 56 55 54 50 48 45 44 50 52 54 54 51 50 46 43 40 35 38 30 26 26 24 24 26 21 20 23 22 26 30 31 33 32 32 32 35 37 37 35 34 29 24
61 58 51 50 45 44 37 36 42 43 46 44 44 39 39 41 38 39 40 37 32 33 31 27 31 26 26 25 21 25 32 33 33 32 33 32 29 33 35 38 37 33 33
62 54 45 45 41 41 35 36 37 39 42 40 36 32 32 30 29 32 39 37 36 40 34 29 40 35 28 25 21 24 31 36 36 35 35 34 32 33 39 40 37 34 37
58 55 51 49 40 43 41 40 40 39 41 40 34 27 26 25 22 25 33 40 33 35 44 47 43 39 35 26 21 24 31 38 39 38 36 34 33 34 37 42 36 32 35
56 60 59 55 47 47 47 44 45 41 44 39 34 29 26 27 29 30 40 36 38 39 41 32 39 38 38 31 26 27 29 36 41 41 37 34 32 35 33 41 39 31 32
54 62 65 60 52 53 52 50 49 43 45 36 35 34 32 34 38 39 42 37 38 42 43 47 44 45 39 37 33 30 27 34 42 41 37 35 31 31 35 39 35 31 26
53 63 68 61 57 60 53 51 51 47 47 37 42 45 39 39 43 39 40 40 44 43 46 39 39 36 38 41 36 32 29 34 38 41 38 37 32 31 35 38 32 32 27
60 63 67 62 59 57 46 54 55 48 46 43 46 44 38 37 39 40 44 49 48 46 43 41 36 35 36 38 39 37 32 31 38 40 39 38 32 32 35 30 30 22 23
59 65 69 63 59 50 45 52 51 47 44 39 46 39 17 22 22 27 38 39 34 33 35 39 40 42 42 46 44 41 37 34 37 37 39 36 33 36 38 31 26 22 21
59 62 64 59 55 46 47 46 45 43 41 46 43 51 52 40 20 12 23 16 22 28 33 36 36 39 40 40 41 34 33 32 36 35 35 36 32 37 34 43 30 18 28
60 61 65 63 51 46 45 44 43 43 40 45 48 49 50 48 45 42 36 33 22 22 26 33 34 33 32 31 34 33 37 34 36 38 35 34 32 36 38 36 33 32 23
63 59 66 62 47 45 44 44 44 38 38 39 43 45 45 41 43 44 42 32 26 25 27 30 33 27 27 28 33 37 36 37 38 38 34 30 30 36 36 33 32 37 28
57 53 58 48 44 44 41 41 42 39 40 35 37 35 37 34 37 29 25 26 27 27 23 22 24 22 25 32 26 29 30 34 39 38 35 33 31 40 34 36 36 35 26
49 44 39 38 42 40 40 34 34 38 36 33 33 32 30 32 30 27 27 27 28 29 26 22 15 18 17 27 30 36 34 32 38 38 37 37 37 36 39 40 39 37 31
50 35 30 40 41 38 32 36 36 36 34 34 28 29 26 28 29 27 26 25 29 25 20 17 15 18 21 21 24 28 36 32 37 37 35 33 41 39 36 41 37 34 34
48 37 37 43 39 37 34 39 36 35 34 31 28 29 28 26 27 27 26 24 23 20 18 11 12 12 13 19 23 27 30 31 36 35 31 31 32 33 37 36 39 34 30
45 43 42 43 40 38 41 40 36 29 29 29 29 29 27 26 25 26 25 24 24 23 21 13 11 10 2 36 25 24 26 27 34 34 29 33 34 38 34 34 32 34 27
46 46 44 45 40 43 43 36 35 30 27 27 27 28 27 25 26 27 25 26 22 20 18 13 14 20 21 24 26 27 28 29 30 30 30 29 33 43 32 35 35 33 30
46 47 47 46 46 40 37 35 25 22 23 20 23 25 27 29 31 30 26 26 25 23 20 17 17 29 33 25 30 29 27 29 33 30 32 30 34 33 24 38 39 35 31
49 50 49 51 46 38 30 25 25 25 21 19 20 23 27 30 31 31 27 27 28 26 24 25 23 33 37 30 27 32 31 28 32 33 33 30 32 31 33 36 35 34 27
52 55 53 49 41 30 26 28 27 27 25 25 25 27 29 32 34 32 29 28 30 28 24 28 32 36 39 40 33 34 36 35 34 35 36 31 31 34 33 31 35 32 31
57 57 53 44 38 31 27 26 26 28 28 28 30 33 33 32 35 35 31 31 29 32 28 28 37 42 41 41 36 37 41 45 41 33 35 36 33 33 34 37 35 34 32
61 53 43 38 36 33 30 27 26 26 25 26 28 26 28 25 29 32 34 34 32 32 24 22 37 43 46 45 41 41 43 48 49 42 40 38 35 32 35 35 34 32 30
50 50 40 39 35 30 28 26 22 20 20 21 22 26 25 24 24 23 23 33 32 29 24 20 28 30 35 39 37 38 42 44 45 45 42 41 41 37 35 34 35 32 31
51 44 44 39 31 29 25 21 20 19 18 16 16 23 24 25 25 20 27 28 25 30 25 21 21 29 35 33 38 38 47 46 50 50 49 39 46 38 39 36 35 32 29
48 49 39 32 27 23 23 22 21 18 16 16 15 20 23 27 25 20 28 28 32 31 33 34 30 34 34 32 27 29 41 49 56 46 49 44 41 45 33 42 37 35 31
Wind_Direction_500mb
257 262 265 265 268 270 270 271 272 272 270 270 270 268 267 262 260 250 236 243 249 268 259 266 265 276 287 307 284 250 236 228 226 223 223 227 232 233 230 226 218 226 232
262 263 267 267 267 270 270 272 271 275 273 270 266 269 270 260 256 249 239 246 256 268 255 278 273 266 280 299 283 254 238 231 226 221 224 224 227 232 234 231 224 228 238
261 265 264 265 269 274 271 270 268 271 267 261 258 266 269 252 246 243 237 252 261 267 266 270 283 270 277 294 289 261 239 233 229 224 227 229 229 230 233 229 225 236 247
265 266 267 271 276 280 278 272 269 269 266 257 256 263 264 241 238 240 253 264 277 272 263 254 255 269 275 281 290 275 243 234 231 228 227 232 233 237 231 224 228 245 245
264 269 273 278 277 279 278 275 272 266 267 259 258 255 256 249 239 250 252 270 276 275 272 275 274 266 267 272 273 274 255 238 232 229 229 230 232 235 233 225 225 243 244
261 267 273 276 279 280 277 274 270 266 269 265 258 260 257 254 245 251 256 261 275 277 272 272 267 263 264 258 263 264 264 244 229 227 226 226 231 232 230 221 229 235 239
260 263 270 272 277 283 283 279 267 263 263 259 254 258 263 253 246 252 251 267 277 274 276 271 267 261 259 253 253 258 260 245 227 224 224 225 227 227 225 211 231 231 240
260 262 267 269 277 278 279 271 262 257 259 250 249 258 261 256 250 251 260 269 275 269 271 269 261 259 260 244 250 259 252 248 227 220 221 224 223 221 211 219 226 228 233
258 262 264 268 270 266 271 267 258 253 260 252 245 237 234 235 243 259 270 267 266 266 266 266 265 269 261 254 251 247 248 249 225 220 220 224 219 216 218 218 220 229 241
261 263 263 264 256 255 264 261 253 250 252 247 244 240 240 252 253 258 267 248 273 276 265 263 266 269 263 252 241 238 232 232 227 222 219 220 217 216 216 216 214 211 243
258 262 261 256 255 249 258 250 244 247 246 241 240 243 245 249 254 251 261 279 283 285 271 265 265 263 255 242 233 234 229 236 226 220 220 213 215 214 216 208 209 195 189
255 263 261 257 248 243 248 246 241 237 235 241 243 247 251 243 253 258 261 267 277 278 281 268 260 257 251 230 234 226 225 234 226 217 217 214 214 216 213 196 194 187 171
258 270 265 250 236 241 244 240 239 224 228 235 240 249 248 248 251 257 257 265 270 279 287 277 258 259 245 231 222 220 220 222 214 209 205 213 209 212 205 192 189 192 189
260 269 260 242 237 241 240 229 219 222 227 231 240 247 240 238 253 256 261 259 267 273 279 271 266 245 252 234 233 233 215 213 203 201 202 208 206 208 202 197 193 191 202
253 250 239 237 236 244 247 210 223 226 219 225 239 237 237 240 247 251 250 256 266 262 280 264 261 252 257 237 211 196 202 199 195 199 202 213 200 201 206 205 198 194 197
243 232 231 229 235 236 224 215 225 210 217 222 228 234 239 246 248 244 247 256 243 253 259 275 268 261 236 217 193 194 189 190 191 195 198 195 196 198 197 203 188 189 193
233 225 225 229 228 216 204 214 208 208 212 223 232 237 241 241 239 241 246 240 245 247 258 267 250 209 153 176 171 175 182 184 187 190 189 185 203 198 188 195 188 183 186
222 222 223 219 206 199 205 207 201 206 219 231 234 236 229 231 232 237 246 238 240 234 239 253 211 186 165 166 174 171 164 166 174 177 174 185 190 170 191 183 186 183 184
218 216 214 203 195 195 197 194 206 220 230 228 231 229 227 232 234 238 238 236 228 225 234 232 210 187 177 175 171 165 158 162 165 166 170 181 190 176 196 181 182 181 198
207 204 192 187 188 189 196 206 210 203 207 225 232 229 231 234 234 235 230 229 219 221 223 227 212 193 186 184 179 167 156 159 165 164 160 160 175 190 175 176 176 181 197
194 184 180 184 183 182 185 188 200 215 227 234 237 237 237 236 234 228 224 223 216 212 217 206 203 194 193 186 182 171 162 155 155 157 159 162 169 167 170 172 186 194 198
178 174 171 179 179 187 199 205 222 234 235 246 249 243 237 232 227 219 219 219 217 213 208 209 199 195 192 185 184 184 173 156 150 168 164 166 175 179 183 190 191 191 197
169 168 169 179 190 197 199 217 223 237 245 244 241 228 216 224 222 221 222 223 212 212 231 261 201 197 195 192 188 185 183 173 169 170 174 172 178 190 194 192 194 197 206
173 168 177 187 186 195 209 220 230 231 230 233 231 212 220 219 226 213 210 197 203 204 201 218 224 218 204 193 199 196 184 180 176 173 181 184 184 193 198 197 199 205 210
169 176 180 183 197 206 216 219 216 213 223 222 218 202 201 198 192 196 178 178 186 189 187 197 213 214 194 197 200 191 183 183 174 180 190 196 190 197 205 211 214 218 222
170 174 178 185 199 213 203 204 201 217 215 209 185 165 173 182 184 184 182 185 186 187 185 180 177 183 190 195 203 206 203 189 185 185 199 201 206 202 214 219 223 227 230
Wind_Speed_850mb
59 56 55 54 50 48 45 44 50 52 54 54 51 50 46 43 40 35 38 30 26 26 24 24 26 21 20 23 22 26 30 31 33 32 32 32 35 37 37 35 34 29 24
61 58 51 50 45 44 37 36 42 43 46 44 44 39 39 41 38 39 40 37 32 33 31 27 31 26 26 25 21 25 32 33 33 32 33 32 29 33 35 38 37 33 33
62 54 45 45 41 41 35 36 37 39 42 40 36 32 32 30 29 32 39 37 36 40 34 29 40 35 28 25 21 24 31 36 36 35 35 34 32 33 39 40 37 34 37
58 55 51 49 40 43 41 40 40 39 41 40 34 27 26 25 22 25 33 40 33 35 44 47 43 39 35 26 21 24 31 38 39 38 36 34 33 34 37 42 36 32 35
56 60 59 55 47 47 47 44 45 41 44 39 34 29 26 27 29 30 40 36 38 39 41 32 39 38 38 31 26 27 29 36 41 41 37 34 32 35 33 41 39 31 32
54 62 65 60 52 53 52 50 49 43 45 36 35 34 32 34 38 39 42 37 38 42 43 47 44 45 39 37 33 30 27 34 42 41 37 35 31 31 35 39 35 31 26
53 63 68 61 57 60 53 51 51 47 47 37 42 45 39 39 43 39 40 40 44 43 46 39 39 36 38 41 36 32 29 34 38 41 38 37 32 31 35 38 32 32 27
60 63 67 62 59 57 46 54 55 48 46 43 46 44 38 37 39 40 44 49 48 46 43 41 36 35 36 38 39 37 32 31 38 40 39 38 32 32 35 30 30 22 23
59 65 69 63 59 50 45 52 51 47 44 39 46 39 17 22 22 27 38 39 34 33 35 39 40 42 42 46 44 41 37 34 37 37 39 36 33 36 38 31 26 22 21
59 62 64 59 55 46 47 46 45 43 41 46 43 51 52 40 20 12 23 16 22 28 33 36 36 39 40 40 41 34 33 32 36 35 35 36 32 37 34 43 30 18 28
60 61 65 63 51 46 45 44 43 43 40 45 48 49 50 48 45 42 36 33 22 22 26 33 34 33 32 31 34 33 37 34 36 38 35 34 32 36 38 36 33 32 23
63 59 66 62 47 45 44 44 44 38 38 39 43 45 45 41 43 44 42 32 26 25 27 30 33 27 27 28 33 37 36 37 38 38 34 30 30 36 36 33 32 37 28
57 53 58 48 44 44 41 41 42 39 40 35 37 35 37 34 37 29 25 26 27 27 23 22 24 22 25 32 26 29 30 34 39 38 35 33 31 40 34 36 36 35 26
49 44 39 38 42 40 40 34 34 38 36 33 33 32 30 32 30 27 27 27 28 29 26 22 15 18 17 27 30 36 34 32 38 38 37 37 37 36 39 40 39 37 31
50 35 30 40 41 38 32 36 36 36 34 34 28 29 26 28 29 27 26 25 29 25 20 17 15 18 21 21 24 28 36 32 37 37 35 33 41 39 36 41 37 34 34
48 37 37 43 39 37 34 39 36 35 34 31 28 29 28 26 27 27 26 24 23 20 18 11 12 12 13 19 23 27 30 31 36 35 31 31 32 33 37 36 39 34 30
45 43 42 43 40 38 41 40 36 29 29 29 29 29 27 26 25 26 25 24 24 23 21 13 11 10 2 36 25 24 26 27 34 34 29 33 34 38 34 34 32 34 27
46 46 44 45 40 43 43 36 35 30 27 27 27 28 27 25 26 27 25 26 22 20 18 13 14 20 21 24 26 27 28 29 30 30 30 29 33 43 32 35 35 33 30
46 47 47 46 46 40 37 35 25 22 23 20 23 25 27 29 31 30 26 26 25 23 20 17 17 29 33 25 30 29 27 29 33 30 32 30 34 33 24 38 39 35 31
49 50 49 51 46 38 30 25 25 25 21 19 20 23 27 30 31 31 27 27 28 26 24 25 23 33 37 30 27 32 31 28 32 33 33 30 32 31 33 36 35 34 27
52 55 53 49 41 30 26 28 27 27 25 25 25 27 29 32 34 32 29 28 30 28 24 28 32 36 39 40 33 34 36 35 34 35 36 31 31 34 33 31 35 32 31
57 57 53 44 38 31 27 26 26 28 28 28 30 33 33 32 35 35 31 31 29 32 28 28 37 42 41 41 36 37 41 45 41 33 35 36 33 33 34 37 35 34 32
61 53 43 38 36 33 30 27 26 26 25 26 28 26 28 25 29 32 34 34 32 32 24 22 37 43 46 45 41 41 43 48 49 42 40 38 35 32 35 35 34 32 30
50 50 40 39 35 30 28 26 22 20 20 21 22 26 25 24 24 23 23 33 32 29 24 20 28 30 35 39 37 38 42 44 45 45 42 41 41 37 35 34 35 32 31
51 44 44 39 31 29 25 21 20 19 18 16 16 23 24 25 25 20 27 28 25 30 25 21 21 29 35 33 38 38 47 46 50 50 49 39 46 38 39 36 35 32 29
48 49 39 32 27 23 23 22 21 18 16 16 15 20 23 27 25 20 28 28 32 31 33 34 30 34 34 32 27 29 41 49 56 46 49 44 41 45 33 42 37 35 31
Wind_Direction_850mb
257 262 265 265 268 270 270 271 272 272 270 270 270 268 267 262 260 250 236 243 249 268 259 266 265 276 287 307 284 250 236 228 226 223 223 227 232 233 230 226 218 226 232
262 263 267 267 267 270 270 272 271 275 273 270 266 269 270 260 256 249 239 246 256 268 255 278 273 266 280 299 283 254 238 231 226 221 224 224 227 232 234 231 224 228 238
261 265 264 265 269 274 271 270 268 271 267 261 258 266 269 252 246 243 237 252 261 267 266 270 283 270 277 294 289 261 239 233 229 224 227 229 229 230 233 229 225 236 247
265 266 267 271 276 280 278 272 269 269 266 257 256 263 264 241 238 240 253 264 277 272 263 254 255 269 275 281 290 275 243 234 231 228 227 232 233 237 231 224 228 245 245
264 269 273 278 277 279 278 275 272 266 267 259 258 255 256 249 239 250 252 270 276 275 272 275 274 266 267 272 273 274 255 238 232 229 229 230 232 235 233 225 225 243 244
261 267 273 276 279 280 277 274 270 266 269 265 258 260 257 254 245 251 256 261 275 277 272 272 267 263 264 258 263 264 264 244 229 227 226 226 231 232 230 221 229 235 239
260 263 270 272 277 283 283 279 267 263 263 259 254 258 263 253 246 252 251 267 277 274 276 271 267 261 259 253 253 258 260 245 227 224 224 225 227 227 225 211 231 231 240
260 262 267 269 277 278 279 271 262 257 259 250 249 258 261 256 250 251 260 269 275 269 271 269 261 259 260 244 250 259 252 248 227 220 221 224 223 221 211 219 226 228 233
258 262 264 268 270 266 271 267 258 253 260 252 245 237 234 235 243 259 270 267 266 266 266 266 265 269 261 254 251 247 248 249 225 220 220 224 219 216 218 218 220 229 241
261 263 263 264 256 255 264 261 253 250 252 247 244 240 240 252 253 258 267 248 273 276 265 263 266 269 263 252 241 238 232 232 227 222 219 220 217 216 216 216 214 211 243
258 262 261 256 255 249 258 250 244 247 246 241 240 243 245 249 254 251 261 279 283 285 271 265 265 263 255 242 233 234 229 236 226 220 220 213 215 214 216 208 209 195 189
255 263 261 257 248 243 248 246 241 237 235 241 243 247 251 243 253 258 261 267 277 278 281 268 260 257 251 230 234 226 225 234 226 217 217 214 214 216 213 196 194 187 171
258 270 265 250 236 241 244 240 239 224 228 235 240 249 248 248 251 257 257 265 270 279 287 277 258 259 245 231 222 220 220 222 214 209 205 213 209 212 205 192 189 192 189
260 269 260 242 237 241 240 229 219 222 227 231 240 247 240 238 253 256 261 259 267 273 279 271 266 245 252 234 233 233 215 213 203 201 202 208 206 208 202 197 193 191 202
253 250 239 237 236 244 247 210 223 226 219 225 239 237 237 240 247 251 250 256 266 262 280 264 261 252 257 237 211 196 202 199 195 199 202 213 200 201 206 205 198 194 197
243 232 231 229 235 236 224 215 225 210 217 222 228 234 239 246 248 244 247 256 243 253 259 275 268 261 236 217 193 194 189 190 191 195 198 195 196 198 197 203 188 189 193
233 225 225 229 228 216 204 214 208 208 212 223 232 237 241 241 239 241 246 240 245 247 258 267 250 209 153 176 171 175 182 184 187 190 189 185 203 198 188 195 188 183 186
222 222 223 219 206 199 205 207 201 206 219 231 234 236 229 231 232 237 246 238 240 234 239 253 211 186 165 166 174 171 164 166 174 177 174 185 190 170 191 183 186 183 184
218 216 214 203 195 195 197 194 206 220 230 228 231 229 227 232 234 238 238 236 228 225 234 232 210 187 177 175 171 165 158 162 165 166 170 181 190 176 196 181 182 181 198
207 204 192 187 188 189 196 206 210 203 207 225 232 229 231 234 234 235 230 229 219 221 223 227 212 193 186 184 179 167 156 159 165 164 160 160 175 190 175 176 176 181 197
194 184 180 184 183 182 185 188 200 215 227 234 237 237 237 236 234 228 224 223 216 212 217 206 203 194 193 186 182 171 162 155 155 157 159 162 169 167 170 172 186 194 198
178 174 171 179 179 187 199 205 222 234 235 246 249 243 237 232 227 219 219 219 217 213 208 209 199 195 192 185 184 184 173 156 150 168 164 166 175 179 183 190 191 191 197
169 168 169 179 190 197 199 217 223 237 245 244 241 228 216 224 222 221 222 223 212 212 231 261 201 197 195 192 188 185 183 173 169 170 174 172 178 190 194 192 194 197 206
173 168 177 187 186 195 209 220 230 231 230 233 231 212 220 219 226 213 210 197 203 204 201 218 224 218 204 193 199 196 184 180 176 173 181 184 184 193 198 197 199 205 210
169 176 180 183 197 206 216 219 216 213 223 222 218 202 201 198 192 196 178 178 186 189 187 197 213 214 194 197 200 191 183 183 174 180 190 196 190 197 205 211 214 218 222
170 174 178 185 199 213 203 204 201 217 215 209 185 165 173 182 184 184 182 185 186 187 185 180 177 183 190 195 203 206 203 189 185 185 199 201 206 202 214 219 223 227 230